Location: Franzen
(48.6167°N, 15.3833°E)
Time: 10:20:10
(UTC+00:00)

Cosmos 1818 - Pass Details

Date: 22 April 2021
Orbit: 772 x 802 km, 65.0° (Epoch: 16 May)

Event Time Altitude Azimuth Distance (km) Brightness Sun altitude
Rises 18:40:06 0° 215° (SW) 3,272 6.9 -6.8°
Reaches altitude 10° 18:42:30 10° 215° (SW) 2,351 6.1 -7.2°
Maximum altitude 18:47:56 87° 128° (SE) 803 3.6 -8.0°
Drops below altitude 10° 18:53:26 10° 39° (NE) 2,382 6.0 -8.8°
Sets 18:55:52 0° 39° (NE) 3,318 6.7 -9.1°
